AIC637 VOBL-VABB

Flight info

Callsign AIC637
Flight time N/A
Altitude 40000
Route VAGPU7B VAGPU Q8 AGELA MOLGO2A
Aircraft B788/H-SDE1E2E3FGHIJ2J3J4J5M1RWXY/LB1D1

Departure

Time 2026-05-04 15:16
Airport Kempegowda International Airport Bengaluru (VOBL)

Arrival

Time N/A
Airport Chhatrapati Shivaji Maharaj International Airport (VABB)
Time Latitude Longitude Altitude Speed Heading
2026-05-04 14:37 13.20182 77.70838 2990 ft 0 kts 180°
2026-05-04 15:04 13.20193 77.70838 3017 ft 3 kts 180°
2026-05-04 15:04 13.20214 77.70838 3023 ft 3 kts 180°
2026-05-04 15:05 13.20235 77.70838 3018 ft 3 kts 180°
2026-05-04 15:05 13.20255 77.70837 3023 ft 3 kts 161°
2026-05-04 15:05 13.20263 77.70823 3022 ft 3 kts 81°
2026-05-04 15:05 13.20263 77.70812 3022 ft 0 kts 91°
2026-05-04 15:10 13.20263 77.70830 3017 ft 6 kts 90°
2026-05-04 15:10 13.20262 77.70990 3017 ft 20 kts 90°
2026-05-04 15:11 13.20261 77.71129 3017 ft 19 kts 90°
2026-05-04 15:11 13.20272 77.71247 3017 ft 14 kts 56°
2026-05-04 15:11 13.20354 77.71276 3017 ft 14 kts
2026-05-04 15:11 13.20507 77.71296 3020 ft 19 kts 47°
2026-05-04 15:12 13.20524 77.71414 3017 ft 16 kts 91°
2026-05-04 15:12 13.20523 77.71524 3017 ft 15 kts 92°
2026-05-04 15:12 13.20522 77.71708 3017 ft 30 kts 89°
2026-05-04 15:12 13.20521 77.71901 3017 ft 25 kts 92°
2026-05-04 15:13 13.20520 77.72071 3017 ft 23 kts 88°
2026-05-04 15:13 13.20518 77.72223 3017 ft 20 kts 88°
2026-05-04 15:13 13.20567 77.72284 3017 ft 0 kts
2026-05-04 15:14 13.20608 77.72284 3017 ft 17 kts 355°
2026-05-04 15:14 13.20685 77.72221 3017 ft 14 kts 280°
2026-05-04 15:15 13.20689 77.72172 3017 ft 0 kts 271°
2026-05-04 15:15 13.20689 77.72147 3017 ft 10 kts 270°
2026-05-04 15:15 13.20691 77.72025 3017 ft 24 kts 271°
2026-05-04 15:16 13.20698 77.70982 3017 ft 140 kts 271°
2026-05-04 15:16 13.20717 77.69773 3124 ft 191 kts 275°
2026-05-04 15:16 13.21664 77.66957 4123 ft 234 kts 309°
2026-05-04 15:17 13.22648 77.65591 4835 ft 243 kts 304°
2026-05-04 15:17 13.25422 77.63373 5754 ft 271 kts 346°
2026-05-04 15:17 13.27241 77.62922 6536 ft 274 kts 345°
2026-05-04 15:18 13.29081 77.62298 7282 ft 277 kts 339°
2026-05-04 15:18 13.30853 77.61529 7999 ft 282 kts 337°
2026-05-04 15:18 13.32695 77.60737 8739 ft 285 kts 339°
2026-05-04 15:19 13.36430 77.59245 10128 ft 294 kts 339°
2026-05-04 15:19 13.38390 77.58449 10555 ft 303 kts 339°
2026-05-04 15:19 13.42338 77.56838 11601 ft 308 kts 339°
2026-05-04 15:20 13.44372 77.56015 11786 ft 327 kts 339°
2026-05-04 15:20 13.46547 77.55131 11881 ft 344 kts 339°
2026-05-04 15:20 13.48825 77.54204 11907 ft 359 kts 339°
2026-05-04 15:20 13.51162 77.53252 12282 ft 361 kts 339°
2026-05-04 15:21 13.53503 77.52300 12675 ft 363 kts 339°
2026-05-04 15:21 13.55835 77.51352 13067 ft 365 kts 339°
2026-05-04 15:21 13.60726 77.49406 13865 ft 382 kts 341°
2026-05-04 15:22 13.63233 77.48474 14406 ft 386 kts 340°
2026-05-04 15:22 13.65774 77.47511 14948 ft 390 kts 340°
2026-05-04 15:22 13.70896 77.45528 16005 ft 397 kts 339°
2026-05-04 15:23 13.73497 77.44534 16528 ft 401 kts 339°
2026-05-04 15:23 13.76126 77.43530 17042 ft 404 kts 339°
2026-05-04 15:23 13.78768 77.42514 17546 ft 408 kts 339°
2026-05-04 15:23 13.81436 77.41488 18023 ft 411 kts 339°
2026-05-04 15:24 13.86844 77.39413 18910 ft 417 kts 339°
2026-05-04 15:24 13.92308 77.37313 19754 ft 422 kts 339°
2026-05-04 15:25 13.95067 77.36252 20152 ft 425 kts 338°
2026-05-04 15:25 13.97842 77.35186 20558 ft 427 kts 338°
2026-05-04 15:25 14.00636 77.34111 20937 ft 430 kts 338°
2026-05-04 15:26 14.06274 77.31942 21668 ft 435 kts 338°
2026-05-04 15:26 14.09117 77.30848 22025 ft 438 kts 338°
2026-05-04 15:26 14.14858 77.28638 22709 ft 443 kts 338°
2026-05-04 15:27 14.17709 77.27539 23056 ft 445 kts 338°
2026-05-04 15:27 14.23553 77.25287 23656 ft 450 kts 338°
2026-05-04 15:28 14.29454 77.23012 24196 ft 453 kts 338°
2026-05-04 15:28 14.32418 77.21869 24463 ft 455 kts 338°
2026-05-04 15:28 14.38364 77.19575 24981 ft 458 kts 338°
2026-05-04 15:29 14.41356 77.18420 25221 ft 459 kts 338°
2026-05-04 15:30 14.53432 77.13755 26259 ft 466 kts 338°
2026-05-04 15:30 14.62584 77.10216 27015 ft 471 kts 338°
2026-05-04 15:31 14.68704 77.07847 27510 ft 474 kts 338°
2026-05-04 15:31 14.71793 77.06651 27756 ft 476 kts 338°
2026-05-04 15:32 14.81141 77.03030 28516 ft 481 kts 338°
2026-05-04 15:32 14.87427 77.00593 29014 ft 484 kts 338°
2026-05-04 15:33 14.93776 76.98129 29507 ft 488 kts 338°
2026-05-04 15:34 15.03363 76.94407 30201 ft 493 kts 338°
2026-05-04 15:34 15.06538 76.93174 30420 ft 494 kts 338°
2026-05-04 15:34 15.12981 76.90669 30836 ft 497 kts 338°
2026-05-04 15:35 15.19477 76.88143 31248 ft 500 kts 338°
2026-05-04 15:35 15.22724 76.86879 31459 ft 502 kts 338°
2026-05-04 15:35 15.26010 76.85600 31655 ft 503 kts 338°
2026-05-04 15:36 15.32588 76.83038 32075 ft 505 kts 338°
2026-05-04 15:36 15.35883 76.81754 32350 ft 505 kts 338°
2026-05-04 15:36 15.39174 76.80472 32665 ft 504 kts 338°
2026-05-04 15:37 15.42408 76.79211 32970 ft 503 kts 338°
2026-05-04 15:37 15.45666 76.77940 33269 ft 502 kts 338°
2026-05-04 15:37 15.48955 76.76656 33594 ft 501 kts 338°
2026-05-04 15:37 15.52219 76.75382 33903 ft 501 kts 338°
2026-05-04 15:38 15.55480 76.74109 34184 ft 500 kts 338°
2026-05-04 15:38 15.58737 76.72837 34463 ft 499 kts 338°
2026-05-04 15:38 15.61983 76.71569 34722 ft 498 kts 338°
2026-05-04 15:38 15.65220 76.70283 34982 ft 497 kts 334°
2026-05-04 15:39 15.68236 76.68582 35269 ft 492 kts 323°
2026-05-04 15:39 15.70883 76.66354 35518 ft 490 kts 313°
2026-05-04 15:39 15.75217 76.60907 35865 ft 490 kts 307°
2026-05-04 15:40 15.77308 76.58112 36129 ft 489 kts 307°
2026-05-04 15:40 15.79405 76.55321 36384 ft 489 kts 307°
2026-05-04 15:40 15.81501 76.52547 36630 ft 488 kts 307°
2026-05-04 15:40 15.83594 76.49770 36882 ft 488 kts 307°
2026-05-04 15:41 15.85679 76.46993 37137 ft 487 kts 307°
2026-05-04 15:41 15.87759 76.44222 37390 ft 486 kts 307°
2026-05-04 15:41 15.89841 76.41455 37631 ft 486 kts 307°
2026-05-04 15:41 15.91871 76.38650 37931 ft 482 kts 300°
2026-05-04 15:42 15.93355 76.35606 38277 ft 478 kts 288°
2026-05-04 15:42 15.94203 76.32273 38506 ft 476 kts 276°
2026-05-04 15:42 15.94345 76.28852 38689 ft 475 kts 264°
2026-05-04 15:42 15.93779 76.25478 38865 ft 475 kts 252°
2026-05-04 15:43 15.92537 76.22301 39024 ft 475 kts 241°
2026-05-04 15:43 15.90750 76.19416 39179 ft 476 kts 231°
2026-05-04 15:43 15.88480 76.16909 39341 ft 477 kts 220°
2026-05-04 15:43 15.85795 76.14873 39468 ft 479 kts 210°
2026-05-04 15:44 15.82782 76.13386 39621 ft 481 kts 199°
2026-05-04 15:44 15.80702 76.12746 39739 ft 482 kts 192°
2026-05-04 15:46 15.75670 76.12303 39929 ft 485 kts 175°
2026-05-04 15:47 15.70481 76.13455 39934 ft 490 kts 159°
2026-05-04 15:48 15.69801 76.13731 39939 ft 490 kts 159°
2026-05-04 15:49 15.65479 76.15527 39901 ft 488 kts 159°
2026-05-04 15:49 15.60226 76.17743 39892 ft 484 kts 159°